Alpena, MI

6:54 AM EDT on September 29, 2016 (GMT -0400)
Alpena County Regional

Weather History for KAPN - November, 2012

Change the Weather History Date:

Saturday, November 3, 2012

  Actual Average Record
Temperature  
Mean Temperature 34 °F 40 °F  
Max Temperature 36 °F 48 °F 74 °F (1978)
Min Temperature 31 °F 32 °F 13 °F (1951)
Degree Days  
Heating Degree Days 31 25  
Month to date heating degree days 87 74  
Since 1 July heating degree days 927 1018  
Moisture  
Dew Point 26 °F    
Average Humidity 76    
Maximum Humidity 85    
Minimum Humidity 66    
Precipitation  
Precipitation T in 0.07 in 1.50 in (1955)
Month to date precipitation 0.02 0.22  
Year to date precipitation 24.22 24.53  
Snow  
Snow T in 0.10 in 14.00 in (1955)
Month to date snowfall T 0.3  
Since 1 July snowfall T 0.7  
Snow Depth T in    
Sea Level Pressure  
Sea Level Pressure 30.19 in    
Wind  
Wind Speed 8 mph (NW)    
Max Wind Speed 16 mph    
Max Gust Speed 20 mph    
Visibility 9 miles    
Events Snow    
T = Trace of Precipitation, MM = Missing Value Source: NWS Daily Summary

Daily Weather History Graph

Daily Weather History Graph

Search for Another Location

Airport or City:

Trip Planner

Search our weather history database for the weather conditions in past years. The results will help you decide how hot, cold, wet, or windy it might be!

Date:

Astronomy

Nov. 03, 2012 Rise Set
Actual Time 8:16 AM EDT 6:18 PM EDT
Civil Twilight 7:45 AM EDT 6:49 PM EDT
Nautical Twilight 7:10 AM EDT 7:24 PM EDT
Astronomical Twilight 6:36 AM EDT 7:58 PM EDT
Moon 9:54 PM EDT (11/3) 12:24 PM EDT (11/3)
Length of Visible Light 11h 04m
Length of Day
10h 02m
Waning Gibbous, 80% of the Moon is Illuminated
Nov 3
Waning Gibbous
Nov 6
Last Quarter
Nov 13
New
Nov 20
First Quarter
Nov 28
Full

Hourly Weather History & Observations

Time (EDT) Temp. Windchill Dew Point Humidity Pressure Visibility Wind Dir Wind Speed Gust Speed Precip Events Conditions
12:10 AM 35.6 °F 28.0 °F 26.6 °F 70% 30.08 in 10.0 mi NNW 10.4 mph - N/A   Overcast
12:54 AM 36.0 °F 28.5 °F 27.0 °F 70% 30.12 in 10.0 mi NNW 10.4 mph - N/A   Overcast
1:17 AM 35.6 °F 28.0 °F 26.6 °F 70% 30.10 in 10.0 mi NNW 10.4 mph - N/A   Overcast
1:54 AM 35.1 °F 27.4 °F 27.0 °F 72% 30.13 in 10.0 mi NNW 10.4 mph - N/A   Overcast
2:54 AM 35.1 °F 28.6 °F 26.1 °F 70% 30.13 in 10.0 mi NNW 8.1 mph - N/A   Overcast
3:36 AM 35.6 °F 28.6 °F 26.6 °F 70% 30.12 in 10.0 mi NNW 9.2 mph - N/A   Overcast
3:54 AM 34.0 °F 25.0 °F 27.0 °F 75% 30.14 in 10.0 mi NNW 12.7 mph - N/A   Overcast
4:54 AM 32.0 °F 24.2 °F 28.9 °F 88% 30.16 in 3.0 mi NNW 9.2 mph - 0.00 in Snow Light Snow
5:54 AM 32.0 °F 28.7 °F 28.9 °F 88% 30.17 in 5.0 mi NW 3.5 mph - 0.00 in Snow Light Snow
6:54 AM 32.0 °F 27.5 °F 28.0 °F 85% 30.18 in 9.0 mi WNW 4.6 mph - 0.00 in   Overcast
7:54 AM 32.0 °F 26.4 °F 28.0 °F 85% 30.19 in 10.0 mi NW 5.8 mph - 0.00 in   Overcast
8:54 AM 32.0 °F 23.6 °F 27.0 °F 82% 30.20 in 10.0 mi NNW 10.4 mph - N/A   Overcast
9:54 AM 33.1 °F 26.1 °F 27.0 °F 78% 30.21 in 10.0 mi North 8.1 mph - N/A   Overcast
10:24 AM 32.0 °F 24.8 °F 28.4 °F 87% 30.18 in 1.8 mi NNW 8.1 mph - 0.00 in Snow Light Snow
10:34 AM 32.0 °F 26.4 °F 30.2 °F 93% 30.18 in 3.0 mi NNW 5.8 mph - 0.00 in Snow Light Snow
10:54 AM 33.1 °F 25.5 °F 27.0 °F 78% 30.22 in 9.0 mi NNW 9.2 mph - 0.00 in   Overcast
11:54 AM 34.0 °F 26.6 °F 26.1 °F 73% 30.23 in 10.0 mi NNW 9.2 mph - N/A   Overcast
12:54 PM 34.0 °F 26.6 °F 27.0 °F 75% 30.22 in 10.0 mi NNW 9.2 mph - N/A   Overcast
1:54 PM 34.0 °F 25.0 °F 26.1 °F 73% 30.22 in 10.0 mi North 12.7 mph 16.1 mph N/A   Overcast
2:54 PM 34.0 °F 26.6 °F 25.0 °F 70% 30.22 in 10.0 mi North 9.2 mph - N/A   Overcast
3:54 PM 34.0 °F 26.0 °F 26.1 °F 73% 30.22 in 10.0 mi North 10.4 mph - N/A   Overcast
4:54 PM 34.0 °F 28.0 °F 25.0 °F 70% 30.23 in 10.0 mi NNW 6.9 mph - N/A   Overcast
5:54 PM 33.1 °F 25.5 °F 25.0 °F 72% 30.23 in 10.0 mi NNW 9.2 mph - N/A   Overcast
6:54 PM 33.1 °F 27.7 °F 25.0 °F 72% 30.23 in 10.0 mi NNW 5.8 mph - N/A   Overcast
7:54 PM 32.0 °F 27.5 °F 23.0 °F 69% 30.23 in 10.0 mi West 4.6 mph - N/A   Overcast
8:54 PM 30.9 °F 27.5 °F 24.1 °F 76% 30.23 in 10.0 mi West 3.5 mph - N/A   Overcast
9:54 PM 30.9 °F 26.2 °F 24.1 °F 76% 30.23 in 10.0 mi WSW 4.6 mph - N/A   Overcast
10:51 PM 30.2 °F 26.7 °F 24.8 °F 80% 30.20 in 10.0 mi West 3.5 mph - N/A   Overcast
10:54 PM 30.9 °F 26.2 °F 25.0 °F 79% 30.23 in 10.0 mi West 4.6 mph - N/A   Overcast
11:32 PM 30.2 °F 26.7 °F 24.8 °F 80% 30.19 in 10.0 mi West 3.5 mph - N/A   Overcast
11:54 PM 32.0 °F 27.5 °F 25.0 °F 75% 30.22 in 10.0 mi West 4.6 mph - N/A   Overcast